Lexington Weather

Lexington, Massachusetts, USA

44°F
1/23/2020 12:40pm 
  • Lexington Conditions: Mostly cloudy
  • Temperature: 43.9°F / 6.6°CWarmer 3.8°F than last hour.
  • Dew Point: 20.5°FDecreased 1.4°Fsince last hour.
  • Relative Humidity: 39%Decreased 9.0% since last hour.
  • Wind: Calm, 10-min avg: Calm, gust: None
  • Barometer: 30.29 inFalling 0.03  inHg/hr Falling Slowly
  • Visibility: 10 miles
  • Rain Today: 0.02 in
  •   

Regional Weather Roundup
for Boston / Norton, MA

        
000
ASUS41 KBOX 221610
RWRBOX

REGIONAL WEATHER ROUNDUP
NATIONAL WEATHER SERVICE BOSTON/NORTON MA
1100 AM EST WED JAN 22 2020

NOTE:  "FAIR" INDICATES FEW OR NO CLOUDS BELOW 12,000 FEET WITH NO 
SIGNIFICANT WEATHER AND/OR OBSTRUCTIONS TO VISIBILITY.

MAZALL-221700-
EASTERN MASSACHUSETTS
  
CITY           SKY/WX    TMP DP  RH WIND       PRES   REMARKS
BOSTON         FAIR      35  15  44 W6        30.45F WCI  30          
BEVERLY        FAIR      30  15  53 VRB6      30.44R WCI  24          
LAWRENCE       FAIR      26  14  60 SW5       30.45S WCI  20          
BEDFORD        FAIR      30  13  49 VRB3      30.43F                  
BLUE HILL        N/A     26  13  57 CALM      30.39F                  
NORWOOD        FAIR      33  13  43 VRB3      30.44F                  
MARSHFIELD     FAIR      32  12  43 VRB5      30.44F WCI  27          
PLYMOUTH       FAIR      30  10  43 W5        30.43F WCI  25          
TAUNTON        FAIR      29  14  53 W5        30.44F WCI  24          
NEW BEDFORD    FAIR      30  12  47 VRB6      30.44F WCI  24          
$$

MAZALL-221700-
CAPE COD AND THE ISLANDS
  
CITY           SKY/WX    TMP DP  RH WIND       PRES   REMARKS
FALMOUTH       SUNNY     30   7  37 CALM      30.44                   
HYANNIS        FAIR      34  11  38 VRB5      30.42F WCI  30          
CHATHAM        FAIR      33  20  58 VRB5      30.45F WCI  29          
PROVINCETOWN   FAIR      31  19  61 W7        30.45F WCI  24          
NANTUCKET      FAIR      33  14  45 SW8       30.44F WCI  26          
MARTHAS VNYRD  FAIR      33  11  39 NW6       30.44F WCI  28          
$$
 
MAZALL-221700-
CENTRAL AND WESTERN MASSACHUSETTS
  
CITY           SKY/WX    TMP DP  RH WIND       PRES   REMARKS
WORCESTER      FAIR      26  13  57 W8G17     30.38F WCI  18          
FITCHBURG      FAIR      30  14  51 W6        30.42F WCI  24          
ORANGE         FAIR      20   8  60 CALM      30.43F                  
SPRINGFIELD    MOSUNNY   19   5  53 CALM      30.44F                  
WESTFIELD      SUNNY     21  10  63 S3        30.45F                  
NORTH ADAMS    CLOUDY    26  16  65 W6        30.43S WCI  19          
PITTSFIELD     CLOUDY    24  17  74 W9        30.38F WCI  14          
$$
 
RIZALL-221700-
RHODE ISLAND
  
CITY           SKY/WX    TMP DP  RH WIND       PRES   REMARKS
PROVIDENCE     FAIR      32  16  51 CALM      30.45F                  
NEWPORT        FAIR      32  16  51 VRB6      30.44F WCI  26          
BLOCK ISLAND   FAIR      31  17  56 VRB6      30.46F WCI  25          
SMITHFIELD     FAIR      29  15  56 NW5       30.43F WCI  24          
WESTERLY       FAIR      34  14  43 VRB5      30.46F WCI  30          
$$
 
CTZALL-221700-
CONNECTICUT
  
CITY           SKY/WX    TMP DP  RH WIND       PRES   REMARKS
BRADLEY INTL   FAIR      25  12  58 CALM      30.46F                  
HARTFORD       FAIR      26  14  60 CALM      30.48F                  
BRIDGEPORT     FAIR      32  16  51 SW6       30.49S WCI  26          
DANBURY        FAIR      27  14  58 E3        30.47S                  
GROTON         FAIR      31  15  52 NW5       30.46F WCI  26          
NEW HAVEN      FAIR      33  17  51 N5        30.47F WCI  29          
CHESTER        NOT AVBL                                               
MERIDEN        FAIR      28  15  58 W7        30.48S WCI  21          
WILLIMANTIC    FAIR      26  13  57 CALM      30.46F                  
OXFORD         FAIR      26  15  63 W6        30.44F WCI  19          
$$

MEZ002-015-021-024-NHZ003-005-008-011-012-014-VTZ005-008-221700-
NORTHERN NEW ENGLAND
  
CITY           SKY/WX    TMP DP  RH WIND       PRES   REMARKS
PORTLAND ME    FAIR      28  11  48 W5        30.43S WCI  23          
BANGOR ME      PTSUNNY   25  12  58 CALM      30.40F                  
CONCORD NH     FAIR      21   9  59 CALM      30.41F                  
MANCHESTER NH  FAIR      24  10  55 CALM      30.41F                  
NASHUA NH      FAIR      28  14  55 E3        30.43F                  
PORTSMOUTH NH  SUNNY     27  10  49 W5        30.41S WCI  21          
JAFFREY NH     FAIR      25  13  60 S6        30.37F WCI  18          
KEENE NH       FAIR      27  19  72 CALM      30.44F                  
BURLINGTON VT  FAIR      30  19  63 S15       30.35S WCI  19          
MT. WASHINGTON PTSUNNY   16   3  57 NW41        N/A  WCI  -7          
$$

NYZ052-076-221700-
EASTERN NEW YORK
  
CITY           SKY/WX    TMP DP  RH WIND       PRES   REMARKS
ALBANY         CLOUDY    25  15  66 S9        30.46S WCI  15          
NEW YORK CITY  FAIR      33  15  47 CALM      30.49S                  
$$
 
ANZALL-221700-
MARINE OBSERVATIONS
  
STATION/POSITION TIME  TEMP    WIND        PRES    VSBY  WAVE
                       AIR SEA DIR/SP/G                  HT/PER
                 (UTC) (F)     (DEG/KT/KT) (MB)    (MI)  (FT/S)
BOSTON BUOY      1550   30 42  260/  8/ 10 1030.2F         1/10
BUZZARDS BAY     1500   28     340/  5/  5 1032.1R
NANTUCKET SOUND  1540                      1031.5
MASS BAY-STELLWA 1504   29 41  290/  8/ 10 1028.9R  1 1/2  1/ 3
ISLE OF SHOALS   1600   26     290/  7/  9 1029.9F
S OF BLOCK IS    1530      45                N/A           2/ 9
$$

......................KEY.........................
  SKY/WX - SKY CONDITION/PRESENT WEATHER
  TMP    - TEMPERATURE IN FAHRENHEIT
  DWPT   - DEWPOINT IN FAHRENHEIT
  RH     - RELATIVE HUMIDITY IN PERCENT
  WIND   - DIRECTION AND SPEED IN MPH
  PRES   - MEAN SEA LEVEL PRESSURE IN INCHES OF HG
  WCI    - WIND CHILL INDEX
  VSB    - VISIBILITY IN MILES
  HX     - HEAT INDEX
  TC     - TEMPERATURE IN CELSIUS
  VRB    - VARIABLE WIND DIRECTION
  N/A    - NOT AVAILABLE
  
      

Other recent Regional Weather Roundups

Thu Jan 23, 12:10pm

Thu Jan 23, 12:01pm

Thu Jan 23, 11:10am

Thu Jan 23, 11:00am

Thu Jan 23, 10:10am

Thu Jan 23, 10:00am

Thu Jan 23, 9:10am

Thu Jan 23, 9:00am

Thu Jan 23, 8:10am

Thu Jan 23, 8:00am

Thu Jan 23, 7:10am

Thu Jan 23, 7:01am

Thu Jan 23, 6:10am

Thu Jan 23, 6:00am

Thu Jan 23, 5:10am

Thu Jan 23, 5:00am

Thu Jan 23, 4:10am

Thu Jan 23, 4:01am

Thu Jan 23, 3:10am

Thu Jan 23, 3:00am

Thu Jan 23, 2:10am

Thu Jan 23, 2:00am

Thu Jan 23, 1:10am

Thu Jan 23, 1:00am

Thu Jan 23, 12:10am

Thu Jan 23, 12:00am

Wed Jan 22, 11:10pm

Wed Jan 22, 11:01pm

Wed Jan 22, 10:10pm

Wed Jan 22, 10:00pm

Wed Jan 22, 9:10pm

Wed Jan 22, 9:00pm

Wed Jan 22, 8:10pm

Wed Jan 22, 8:01pm

Wed Jan 22, 7:10pm

Wed Jan 22, 7:00pm

Wed Jan 22, 6:10pm

Wed Jan 22, 6:01pm

Wed Jan 22, 5:10pm

Wed Jan 22, 5:00pm

Wed Jan 22, 4:10pm

Wed Jan 22, 4:00pm

Wed Jan 22, 3:10pm

Wed Jan 22, 3:00pm

Wed Jan 22, 2:10pm

Wed Jan 22, 2:00pm

Wed Jan 22, 1:10pm

Wed Jan 22, 1:00pm

Wed Jan 22, 12:10pm

Wed Jan 22, 12:00pm

Wed Jan 22, 11:00am

Wed Jan 22, 10:10am

Wed Jan 22, 10:01am

Wed Jan 22, 9:10am

Wed Jan 22, 9:00am

Wed Jan 22, 8:10am

Wed Jan 22, 8:00am

Wed Jan 22, 7:10am

Wed Jan 22, 7:00am

Wed Jan 22, 6:10am

Wed Jan 22, 6:00am

Wed Jan 22, 5:10am

Wed Jan 22, 5:00am

Wed Jan 22, 4:10am

Wed Jan 22, 4:00am

Wed Jan 22, 3:10am

Wed Jan 22, 3:01am

Wed Jan 22, 2:10am

Wed Jan 22, 2:00am

Wed Jan 22, 1:10am

Wed Jan 22, 1:00am

Wed Jan 22, 12:10am

Wed Jan 22, 12:00am

Tue Jan 21, 11:10pm

Tue Jan 21, 11:00pm

Tue Jan 21, 10:10pm

Tue Jan 21, 10:00pm

Tue Jan 21, 9:10pm

Tue Jan 21, 9:01pm

Tue Jan 21, 8:10pm

Tue Jan 21, 8:00pm

Tue Jan 21, 7:10pm

Tue Jan 21, 7:00pm

Tue Jan 21, 6:10pm

Tue Jan 21, 6:01pm

Tue Jan 21, 5:10pm

Tue Jan 21, 5:00pm

Tue Jan 21, 4:10pm

Tue Jan 21, 4:00pm

Tue Jan 21, 3:10pm

Tue Jan 21, 3:01pm

Tue Jan 21, 2:10pm

Tue Jan 21, 2:00pm

Tue Jan 21, 1:10pm

Tue Jan 21, 1:00pm

Tue Jan 21, 12:10pm

Tue Jan 21, 12:00pm

Tue Jan 21, 11:10am

Tue Jan 21, 11:00am

Tue Jan 21, 10:10am

Tue Jan 21, 10:00am

Tue Jan 21, 9:10am

Tue Jan 21, 9:00am

Tue Jan 21, 8:10am

Tue Jan 21, 8:00am

Tue Jan 21, 7:10am

Tue Jan 21, 7:00am

Tue Jan 21, 6:10am

Tue Jan 21, 6:00am

Tue Jan 21, 5:10am

Tue Jan 21, 5:00am

Tue Jan 21, 4:10am

Tue Jan 21, 4:00am

Tue Jan 21, 3:10am

Tue Jan 21, 3:00am

Tue Jan 21, 2:10am

Tue Jan 21, 2:01am

Tue Jan 21, 1:10am

Tue Jan 21, 1:00am

Tue Jan 21, 12:10am

Tue Jan 21, 12:00am

Mon Jan 20, 11:10pm

Mon Jan 20, 11:00pm

Mon Jan 20, 10:10pm

Mon Jan 20, 10:00pm

Mon Jan 20, 9:10pm

Mon Jan 20, 9:00pm

Mon Jan 20, 8:10pm

Mon Jan 20, 8:00pm

Mon Jan 20, 7:10pm

Mon Jan 20, 7:00pm

Mon Jan 20, 6:10pm

Mon Jan 20, 6:00pm

Mon Jan 20, 5:10pm

Mon Jan 20, 5:00pm

Mon Jan 20, 4:10pm

Mon Jan 20, 4:01pm

Mon Jan 20, 3:10pm

Mon Jan 20, 3:00pm

Mon Jan 20, 2:10pm

Mon Jan 20, 2:00pm

Mon Jan 20, 1:10pm

Mon Jan 20, 1:00pm

Meta data:

ID: 86d94e03-1ce3-4c98-bc20-7e111a13a04a
Link: https://api.weather.gov/products/86d94e03-1ce3-4c98-bc20-7e111a13a04a